Torna al catalogo

NSS 11

AAP-1

AttivoComunicazioniGEO
NORAD 26554·PAYLOAD·🇱🇺 Luxembourg

Lanciato Oct 1, 2000 da Baikonur Cosmodrome

Loading…

TLE

AggiornatoSource: CelesTrak SupGP

Epoca: Sep 13, 2026, 23:30 UTC

1 26554C 00059A   26256.97916667  .00000115  00000+0  00000+0 0  2569
2 26554   2.3498  80.2376 0002837  96.4106 344.8209  1.00272362    16

Traccia NSS 11 in tempo reale con AllMySat

Download on the App Store